N2RDT Weather Reports


time (UTC)temp
C
wind
direction
speed
KPH
gust
KPH
rain 1hr
cm
rain 24hr
cm
rain mn
cm
humidity
%
barometer
mb
20260505165240 25 89 6.4 14.5 0.00 0.00 0.00 43 1017.0
20260505164736 25 101 3.2 16.1 0.00 0.00 0.00 43 1017.2
20260505164234 25 82 4.8 14.5 0.00 0.00 0.00 46 1017.0
20260505163732 25 107 1.6 8.0 0.00 0.00 0.00 45 1017.1
20260505163230 25 107 12.9 14.5 0.00 0.00 0.00 44 1017.2
20260505162727 25 174 11.3 16.1 0.00 0.00 0.00 45 1017.2
20260505162224 25 92 11.3 14.5 0.00 0.00 0.00 45 1017.0
20260505161721 25 92 11.3 14.5 0.00 0.00 0.00 45 1017.2
20260505161219 25 92 11.3 14.5 0.00 0.00 0.00 45 1017.4
20260505160716 25 92 11.3 14.5 0.00 0.00 0.00 45 1017.4
20260505160214 25 135 9.7 9.7 0.00 0.00 0.00 47 1017.4
20260505153152 23 189 14.5 20.9 0.00 0.00 0.00 47 1017.7
20260505152649 23 140 4.8 12.9 0.00 0.00 0.00 50 1017.8
20260505152145 23 108 4.8 12.9 0.00 0.00 0.00 49 1017.8
20260505151640 23 90 11.3 16.1 0.00 0.00 0.00 51 1017.7
20260505151138 23 114 8.0 9.7 0.00 0.00 0.00 51 1017.7
20260505150634 23 116 6.4 14.5 0.00 0.00 0.00 52 1017.8
20260505150131 22 109 8.0 9.7 0.00 0.00 0.00 53 1017.7
20260505140559 21 162 14.5 19.3 0.00 0.00 0.00 57 1017.5
20260505125013 17 130 3.2 12.9 0.00 0.00 0.00 66 1017.6
20260505124510 17 121 4.8 9.7 0.00 0.00 0.00 66 1017.7
20260505124006 17 141 8.0 19.3 0.00 0.00 0.00 66 1017.7
20260505123502 17 125 9.7 12.9 0.00 0.00 0.00 66 1017.9
20260505122959 17 96 4.8 11.3 0.00 0.00 0.00 67 1017.7
20260505122456 16 101 3.2 11.3 0.00 0.00 0.00 67 1017.7
20260505121953 16 130 8.0 16.1 0.00 0.00 0.00 67 1017.7
20260505121449 16 77 1.6 9.7 0.00 0.00 0.00 69 1017.8
20260505120945 16 170 9.7 9.7 0.00 0.00 0.00 69 1017.8
20260505120442 16 123 6.4 9.7 0.00 0.00 0.00 69 1017.6
20260505115941 16 87 3.2 9.7 0.00 0.00 0.00 70 1017.6
20260505115437 16 128 6.4 9.7 0.00 0.00 0.00 70 1017.6
20260505114936 15 115 0.0 8.0 0.00 0.00 0.00 70 1017.5
20260505114432 15 113 6.4 6.4 0.00 0.00 0.00 73 1017.6
20260505113928 15 113 6.4 6.4 0.00 0.00 0.00 73 1017.5
20260505113425 15 113 6.4 6.4 0.00 0.00 0.00 73 1017.6
20260505112921 15 113 6.4 6.4 0.00 0.00 0.00 73 1017.5
20260505112419 13 74 3.2 3.2 0.00 0.00 0.00 75 1017.3
20260505111915 13 74 3.2 3.2 0.00 0.00 0.00 75 1017.3
20260505111415 13 113 3.2 6.4 0.00 0.00 0.00 75 1017.1
20260505110911 13 82 3.2 8.0 0.00 0.00 0.00 76 1017.1
20260505110408 13 85 4.8 6.4 0.00 0.00 0.00 76 1017.0
20260505101838 12 111 4.8 6.4 0.00 0.00 0.00 76 1016.5
20260505101334 13 109 6.4 6.4 0.00 0.00 0.00 76 1016.6
20260505100830 13 88 3.2 6.4 0.00 0.00 0.00 75 1016.6
20260505100327 13 103 4.8 8.0 0.00 0.00 0.00 75 1016.4
20260505095822 13 115 4.8 6.4 0.00 0.00 0.00 74 1016.1
20260505095320 13 110 3.2 6.4 0.00 0.00 0.00 74 1016.2
20260505094816 13 87 6.4 9.7 0.00 0.00 0.00 73 1016.0
20260505094313 13 95 3.2 9.7 0.00 0.00 0.00 74 1016.0
20260505093808 13 108 4.8 8.0 0.00 0.00 0.00 73 1016.1
20260505093307 13 98 4.8 6.4 0.00 0.00 0.00 73 1016.1
20260505092803 13 106 3.2 12.9 0.00 0.00 0.00 73 1016.1
20260505092304 13 103 3.2 6.4 0.00 0.00 0.00 73 1016.1
20260505091759 13 107 4.8 8.0 0.00 0.00 0.00 73 1016.2
20260505091256 13 129 8.0 9.7 0.00 0.00 0.00 72 1016.0
20260505090754 13 106 3.2 9.7 0.00 0.00 0.00 72 1016.0
20260505090252 13 124 8.0 8.0 0.00 0.00 0.00 72 1016.1
20260505085749 13 104 4.8 6.4 0.00 0.00 0.00 72 1016.1
20260505085247 13 98 4.8 9.7 0.00 0.00 0.00 72 1016.0
20260505084744 13 97 4.8 9.7 0.00 0.00 0.00 72 1015.9
20260505084243 13 90 3.2 8.0 0.00 0.00 0.00 71 1015.9
20260505083740 14 80 3.2 11.3 0.00 0.00 0.00 70 1015.8
20260505083236 14 112 6.4 8.0 0.00 0.00 0.00 70 1016.0
20260505082732 14 93 3.2 6.4 0.00 0.00 0.00 70 1016.0
20260505082230 14 135 3.2 8.0 0.00 0.00 0.00 70 1015.9
20260505081725 14 103 3.2 9.7 0.00 0.00 0.00 70 1015.8
20260505081223 14 94 3.2 9.7 0.00 0.00 0.00 70 1015.8
20260505080720 14 111 6.4 6.4 0.00 0.00 0.00 69 1015.8
20260505080215 14 90 4.8 9.7 0.00 0.00 0.00 69 1015.8
20260505075711 15 107 4.8 9.7 0.00 0.00 0.00 68 1015.8
20260505075209 15 120 6.4 9.7 0.00 0.00 0.00 68 1015.8
20260505074706 15 122 9.7 9.7 0.00 0.00 0.00 68 1015.7
20260505074203 15 102 6.4 12.9 0.00 0.00 0.00 68 1015.6
20260505073700 15 103 4.8 9.7 0.00 0.00 0.00 68 1015.7
20260505073158 15 116 6.4 8.0 0.00 0.00 0.00 68 1015.6
20260505072654 15 77 1.6 11.3 0.00 0.00 0.00 67 1015.6
20260505072151 15 120 8.0 9.7 0.00 0.00 0.00 67 1015.5
20260505071646 15 106 11.3 12.9 0.00 0.00 0.00 67 1015.6
20260505071144 15 123 4.8 8.0 0.00 0.00 0.00 67 1015.6
20260505070641 15 101 3.2 12.9 0.00 0.00 0.00 67 1015.6
20260505070137 15 133 11.3 12.9 0.00 0.00 0.00 67 1015.6
20260505065633 15 112 4.8 11.3 0.00 0.00 0.00 66 1015.6
20260505065130 15 99 3.2 8.0 0.00 0.00 0.00 66 1015.6
20260505064627 15 108 4.8 12.9 0.00 0.00 0.00 66 1015.6
20260505064125 15 99 4.8 14.5 0.00 0.00 0.00 65 1015.5
20260505063622 16 115 4.8 16.1 0.00 0.00 0.00 65 1015.6
20260505063118 16 126 6.4 11.3 0.00 0.00 0.00 65 1015.6
20260505062615 16 109 4.8 6.4 0.00 0.00 0.00 64 1015.6
20260505062112 16 135 9.7 14.5 0.00 0.00 0.00 64 1015.7
20260505061609 16 87 3.2 14.5 0.00 0.00 0.00 63 1015.5
20260505061108 16 127 4.8 16.1 0.00 0.00 0.00 64 1015.5
20260505060605 16 123 8.0 17.7 0.00 0.00 0.00 64 1015.7
20260505055556 16 112 6.4 14.5 0.00 0.00 0.00 63 1015.7
20260505055053 16 109 6.4 9.7 0.00 0.00 0.00 63 1015.6
20260505054550 16 105 6.4 16.1 0.00 0.00 0.00 63 1015.5
20260505054049 16 148 3.2 12.9 0.00 0.00 0.00 63 1015.5
20260505053545 16 131 11.3 20.9 0.00 0.00 0.00 62 1015.7
20260505053042 16 102 8.0 11.3 0.00 0.00 0.00 63 1015.7
20260505052539 16 111 8.0 20.9 0.00 0.00 0.00 62 1015.8
20260505052037 16 119 6.4 11.3 0.00 0.00 0.00 63 1015.8
20260505051533 16 119 6.4 14.5 0.00 0.00 0.00 62 1015.7
20260505051032 16 98 3.2 14.5 0.00 0.00 0.00 63 1015.7
20260505050529 16 80 8.0 16.1 0.00 0.00 0.00 62 1015.8
20260505041457 17 114 6.4 9.7 0.00 0.00 0.00 61 1015.6
20260505040954 17 112 11.3 19.3 0.00 0.00 0.00 60 1015.7
20260505040452 17 103 6.4 16.1 0.00 0.00 0.00 60 1015.6
20260505035948 17 103 9.7 12.9 0.00 0.00 0.00 60 1015.7
20260505035444 17 102 12.9 16.1 0.00 0.00 0.00 60 1015.7
20260505034942 17 124 8.0 12.9 0.00 0.00 0.00 60 1015.6
20260505034438 17 102 8.0 12.9 0.00 0.00 0.00 59 1015.8
20260505033935 18 129 4.8 20.9 0.00 0.00 0.00 59 1015.5
20260505033432 18 107 4.8 9.7 0.00 0.00 0.00 59 1015.4
20260505032930 18 103 11.3 14.5 0.00 0.00 0.00 59 1015.6
20260505032427 18 75 6.4 14.5 0.00 0.00 0.00 59 1015.6
20260505031923 18 112 9.7 20.9 0.00 0.00 0.00 58 1015.5
20260505031420 18 89 6.4 24.1 0.00 0.00 0.00 58 1015.6
20260505030917 18 87 9.7 12.9 0.00 0.00 0.00 58 1015.5
20260505030413 18 96 6.4 17.7 0.00 0.00 0.00 58 1015.4
20260505025909 18 124 11.3 14.5 0.00 0.00 0.00 58 1015.6
20260505025406 18 103 4.8 20.9 0.00 0.00 0.00 58 1015.4
20260505024905 18 88 4.8 14.5 0.00 0.00 0.00 58 1015.6
20260505024402 18 102 3.2 9.7 0.00 0.00 0.00 57 1015.3
20260505023859 19 135 19.3 24.1 0.00 0.00 0.00 57 1015.5
20260505023356 19 115 6.4 14.5 0.00 0.00 0.00 56 1015.5
20260505022853 19 87 9.7 19.3 0.00 0.00 0.00 55 1015.5
20260505022350 19 113 12.9 14.5 0.00 0.00 0.00 54 1015.5
20260505021848 19 115 8.0 14.5 0.00 0.00 0.00 53 1015.3
20260505021344 19 80 6.4 11.3 0.00 0.00 0.00 52 1015.3
20260505020840 20 131 12.9 16.1 0.00 0.00 0.00 51 1015.3
20260505020336 20 82 6.4 16.1 0.00 0.00 0.00 50 1015.3
20260505015833 20 111 6.4 16.1 0.00 0.00 0.00 49 1015.1
20260505015330 20 109 6.4 9.7 0.00 0.00 0.00 45 1015.0
20260505014827 20 73 9.7 12.9 0.00 0.00 0.00 45 1015.1
20260505014324 20 86 4.8 9.7 0.00 0.00 0.00 45 1015.2
20260505013820 19 92 4.8 8.0 0.00 0.00 0.00 45 1014.9
20260505013318 20 95 3.2 9.7 0.00 0.00 0.00 45 1014.8
20260505012816 20 110 4.8 9.7 0.00 0.00 0.00 45 1014.7
20260505012314 20 86 3.2 6.4 0.00 0.00 0.00 45 1014.8
20260505011809 20 83 4.8 6.4 0.00 0.00 0.00 45 1014.7
20260505011306 20 97 4.8 11.3 0.00 0.00 0.00 44 1014.7
20260505010802 19 109 3.2 6.4 0.00 0.00 0.00 45 1014.4
20260505010258 20 93 4.8 6.4 0.00 0.00 0.00 45 1014.5
20260505005754 20 107 3.2 8.0 0.00 0.00 0.00 45 1014.5
20260505005252 19 93 1.6 4.8 0.00 0.00 0.00 46 1014.4
20260505004749 20 95 3.2 4.8 0.00 0.00 0.00 45 1014.3
20260505004245 20 70 3.2 4.8 0.00 0.00 0.00 45 1014.4
20260505003742 20 122 3.2 6.4 0.00 0.00 0.00 43 1014.2
20260505003240 20 84 1.6 6.4 0.00 0.00 0.00 43 1014.3
20260505002736 20 86 4.8 4.8 0.00 0.00 0.00 43 1014.4
20260505002234 20 83 3.2 4.8 0.00 0.00 0.00 42 1014.1
20260505001731 21 105 3.2 4.8 0.00 0.00 0.00 41 1014.0
20260505001229 21 93 3.2 4.8 0.00 0.00 0.00 40 1014.0
20260505000725 21 82 4.8 6.4 0.00 0.00 0.00 39 1014.0
20260505000226 21 104 3.2 4.8 0.00 0.00 0.00 39 1013.9
20260504235719 22 112 3.2 4.8 0.00 0.00 0.00 38 1013.9
20260504235215 22 83 1.6 6.4 0.00 0.00 0.00 38 1014.0
20260504234713 22 87 6.4 6.4 0.00 0.00 0.00 37 1013.7
20260504234210 22 99 3.2 6.4 0.00 0.00 0.00 36 1013.8
20260504233706 23 84 4.8 4.8 0.00 0.00 0.00 36 1013.7
20260504233202 23 122 3.2 4.8 0.00 0.00 0.00 33 1013.5
20260504232700 23 116 1.6 6.4 0.00 0.00 0.00 33 1013.7
20260504232156 24 146 3.2 8.0 0.00 0.00 0.00 32 1013.5
20260504231653 24 126 6.4 6.4 0.00 0.00 0.00 30 1013.4
20260504231150 24 151 6.4 12.9 0.00 0.00 0.00 30 1013.6
20260504230646 24 111 4.8 11.3 0.00 0.00 0.00 30 1013.6
20260504230145 25 134 8.0 17.7 0.00 0.00 0.00 29 1013.6
20260504225643 25 122 8.0 9.7 0.00 0.00 0.00 28 1013.7
20260504225138 26 133 4.8 6.4 0.00 0.00 0.00 29 1013.4
20260504224635 26 142 4.8 9.7 0.00 0.00 0.00 29 1013.7
20260504224132 26 134 4.8 9.7 0.00 0.00 0.00 29 1013.6
20260504223629 26 112 4.8 11.3 0.00 0.00 0.00 29 1013.7
20260504223125 26 121 3.2 14.5 0.00 0.00 0.00 30 1013.7
20260504222622 25 115 4.8 19.3 0.00 0.00 0.00 29 1013.6
20260504222120 26 187 4.8 12.9 0.00 0.00 0.00 29 1013.7
20260504221616 26 106 4.8 19.3 0.00 0.00 0.00 29 1013.6
20260504221114 26 82 4.8 6.4 0.00 0.00 0.00 28 1013.5
20260504220610 26 134 8.0 16.1 0.00 0.00 0.00 29 1013.6
20260504220108 26 163 12.9 14.5 0.00 0.00 0.00 29 1013.7
20260504215603 26 144 8.0 14.5 0.00 0.00 0.00 29 1013.7
20260504215101 26 162 11.3 12.9 0.00 0.00 0.00 29 1013.5
20260504214557 26 174 14.5 17.7 0.00 0.00 0.00 29 1013.8
20260504214053 26 129 9.7 12.9 0.00 0.00 0.00 29 1013.7
20260504213550 26 140 4.8 11.3 0.00 0.00 0.00 31 1013.8
20260504213047 26 108 11.3 17.7 0.00 0.00 0.00 29 1013.8
20260504212543 26 136 6.4 9.7 0.00 0.00 0.00 28 1013.9
20260504212040 26 140 12.9 16.1 0.00 0.00 0.00 29 1013.7
20260504211537 26 148 6.4 14.5 0.00 0.00 0.00 29 1013.6
20260504211034 26 175 9.7 17.7 0.00 0.00 0.00 29 1013.6
20260504210531 26 107 6.4 14.5 0.00 0.00 0.00 30 1013.7
20260504210027 26 140 8.0 12.9 0.00 0.00 0.00 30 1013.9
20260504205526 26 117 3.2 9.7 0.00 0.00 0.00 32 1013.8
20260504205023 26 102 4.8 14.5 0.00 0.00 0.00 29 1013.7
20260504204521 26 146 9.7 14.5 0.00 0.00 0.00 30 1014.0
20260504204020 26 149 12.9 12.9 0.00 0.00 0.00 29 1014.0
20260504203518 26 214 4.8 20.9 0.00 0.00 0.00 28 1014.1
20260504203015 26 110 3.2 24.1 0.00 0.00 0.00 32 1014.0
20260504202510 26 182 8.0 12.9 0.00 0.00 0.00 31 1014.2
20260504202007 26 193 4.8 12.9 0.00 0.00 0.00 33 1014.2
20260504201504 26 148 8.0 14.5 0.00 0.00 0.00 32 1014.2
20260504201002 26 131 6.4 16.1 0.00 0.00 0.00 32 1014.1
20260504200458 25 137 17.7 17.7 0.00 0.00 0.00 30 1014.3
20260504195955 25 173 8.0 22.5 0.00 0.00 0.00 30 1014.2
20260504195451 25 183 12.9 22.5 0.00 0.00 0.00 31 1014.2
20260504194948 25 204 8.0 22.5 0.00 0.00 0.00 31 1014.3
20260504194444 25 184 11.3 11.3 0.00 0.00 0.00 31 1014.4
20260504193940 25 196 8.0 14.5 0.00 0.00 0.00 33 1014.6
20260504193437 25 146 17.7 25.7 0.00 0.00 0.00 30 1014.7
20260504192936 25 174 9.7 20.9 0.00 0.00 0.00 31 1014.7
20260504192432 25 168 8.0 17.7 0.00 0.00 0.00 31 1014.6
20260504191932 25 142 11.3 17.7 0.00 0.00 0.00 30 1014.6
20260504191430 25 150 4.8 17.7 0.00 0.00 0.00 29 1014.6
20260504190930 25 124 8.0 16.1 0.00 0.00 0.00 30 1014.6
20260504190425 25 139 16.1 17.7 0.00 0.00 0.00 31 1014.8
20260504185923 25 174 9.7 14.5 0.00 0.00 0.00 32 1014.9
20260504185420 25 118 14.5 27.4 0.00 0.00 0.00 31 1014.9
20260504184915 24 151 9.7 9.7 0.00 0.00 0.00 32 1014.8
20260504184411 23 150 9.7 11.3 0.00 0.00 0.00 30 1015.0
20260504183908 24 208 3.2 16.1 0.00 0.00 0.00 32 1014.8
20260504183405 25 134 8.0 16.1 0.00 0.00 0.00 33 1015.1
20260504182903 25 137 3.2 19.3 0.00 0.00 0.00 30 1015.1
20260504182400 24 119 4.8 9.7 0.00 0.00 0.00 32 1015.3
20260504181856 23 84 6.4 16.1 0.00 0.00 0.00 31 1015.2
20260504181354 23 153 9.7 17.7 0.00 0.00 0.00 30 1015.3
20260504180853 24 157 11.3 19.3 0.00 0.00 0.00 31 1015.4
20260504180351 23 120 6.4 12.9 0.00 0.00 0.00 31 1015.3
20260504175849 23 104 6.4 20.9 0.00 0.00 0.00 33 1015.3
20260504175345 23 140 9.7 24.1 0.00 0.00 0.00 34 1015.3
20260504174843 23 76 4.8 14.5 0.00 0.00 0.00 36 1015.6
20260504174341 23 126 9.7 14.5 0.00 0.00 0.00 33 1015.6
20260504173837 23 129 8.0 19.3 0.00 0.00 0.00 33 1015.5
20260504173334 23 238 11.3 19.3 0.00 0.00 0.00 33 1015.7
20260504172831 23 146 8.0 12.9 0.00 0.00 0.00 35 1015.7
20260504172328 23 132 9.7 12.9 0.00 0.00 0.00 34 1015.8
20260504171824 23 285 0.0 8.0 0.00 0.00 0.00 36 1015.9
20260504171321 23 172 14.5 22.5 0.00 0.00 0.00 34 1016.0
20260504170818 23 154 11.3 17.7 0.00 0.00 0.00 36 1016.2
20260504170315 22 138 0.0 8.0 0.00 0.00 0.00 40 1016.1